Date String (YYYY-MM-DD hh:mm:ss) UTC,Instrument flags,Ambient pressure (hPa),Sample flow (lpm),Bypass flow (lpm),Sample temperature (°C),Ambient temperature (°C),ASC tube jacket temperature (°C),LED temperature (°C),Box temperature (°C),Sample RH (%),Span deviation,Mass concentration (μg/m³),Mass concentration (μg/m³),Mass concentration (μg/m³)
DateTimeUTC,F1_M11,P_M11,Q1_M11,Q2_M11,T1_M11,T2_M11,T3_M11,T4_M11,T5_M11,U1_M11,ZSPAN_M11,X0_M11,X2_M11,X1_M11
2022-04-15 00:00:00,,0819.3,4.99,0.00,24.4,23.5,00.0,33.3,26.3,08.1,0000.0,0009.70,0003.78,0002.45
2022-04-15 00:01:00,,0819.3,4.99,0.00,24.4,23.5,00.0,33.3,26.3,08.1,0000.0,0009.78,0003.77,0002.41
2022-04-15 00:02:00,,0819.3,5.00,0.00,24.4,23.5,00.0,33.3,26.3,08.1,0000.0,0010.45,0003.75,0002.40
2022-04-15 00:03:00,,0819.3,5.02,0.00,24.4,23.5,00.0,33.3,26.3,08.1,0000.0,0010.45,0003.77,0002.39
2022-04-15 00:04:00,,0819.4,5.00,0.00,24.4,23.5,00.0,33.3,26.2,08.2,0000.0,0010.71,0003.76,0002.38
2022-04-15 00:05:00,,0819.3,4.99,0.00,24.4,23.5,00.0,33.3,26.2,08.4,0000.0,0010.84,0003.77,0002.38
2022-04-15 00:06:00,,0819.3,4.99,0.00,24.4,23.5,00.0,33.3,26.2,08.5,0000.0,0010.89,0003.78,0002.37
2022-04-15 00:07:00,,0819.3,5.02,0.00,24.4,23.5,00.0,33.3,26.2,08.6,0000.0,0011.11,0003.80,0002.37
2022-04-15 00:08:00,,0819.2,5.01,0.00,24.4,23.5,00.0,33.3,26.2,08.5,0000.0,0010.48,0003.79,0002.37
2022-04-15 00:09:00,,0819.1,5.00,0.00,24.4,23.4,00.0,33.3,26.3,08.5,0000.0,0010.62,0003.80,0002.38
2022-04-15 00:10:00,,0819.2,5.00,0.00,24.4,23.4,00.0,33.3,26.3,08.5,0000.0,0010.39,0003.78,0002.39
2022-04-15 00:11:00,,0819.3,5.02,0.00,24.4,23.4,00.0,33.3,26.3,08.5,0000.0,0010.22,0003.80,0002.37
2022-04-15 00:12:00,,0819.2,5.00,0.00,24.4,23.4,00.0,33.3,26.3,08.5,0000.0,0010.17,0003.78,0002.37
2022-04-15 00:13:00,,0819.2,4.99,0.00,24.4,23.4,00.0,33.3,26.3,08.4,0000.0,0009.43,0003.75,0002.37
2022-04-15 00:14:00,,0819.2,5.01,0.00,24.4,23.4,00.0,33.3,26.3,08.4,0000.0,0009.20,0003.72,0002.36
2022-04-15 00:15:00,,0819.2,5.01,0.00,24.4,23.4,00.0,33.3,26.2,08.5,0000.0,0008.81,0003.68,0002.36
2022-04-15 00:16:00,,0819.3,4.99,0.00,24.4,23.4,00.0,33.3,26.2,08.5,0000.0,0008.58,0003.67,0002.36
2022-04-15 00:17:00,,0819.2,5.00,0.00,24.3,23.4,00.0,33.3,26.1,08.5,0000.0,0008.54,0003.67,0002.37
2022-04-15 00:18:00,,0819.0,5.00,0.00,24.3,23.4,00.0,33.3,26.1,08.5,0000.0,0008.88,0003.63,0002.38
2022-04-15 00:19:00,,0819.1,4.99,0.00,24.3,23.4,00.0,33.3,26.2,08.4,0000.0,0008.77,0003.61,0002.39
2022-04-15 00:20:00,,0819.1,5.01,0.00,24.3,23.4,00.0,33.3,26.2,08.4,0000.0,0008.54,0003.63,0002.39
2022-04-15 00:21:00,,0819.0,5.00,0.00,24.3,23.4,00.0,33.3,26.2,08.3,0000.0,0009.07,0003.63,0002.38
2022-04-15 00:22:00,,0819.1,5.00,0.00,24.3,23.3,00.0,33.3,26.2,08.3,0000.0,0009.20,0003.56,0002.39
2022-04-15 00:23:00,,0819.1,5.01,0.00,24.3,23.3,00.0,33.2,26.2,08.3,0000.0,0009.08,0003.54,0002.40
2022-04-15 00:24:00,,0819.0,4.98,0.00,24.3,23.3,00.0,33.2,26.2,08.3,0000.0,0009.14,0003.59,0002.40
2022-04-15 00:25:00,,0819.1,5.02,0.00,24.3,23.3,00.0,33.2,26.1,08.3,0000.0,0009.24,0003.60,0002.42
2022-04-15 00:26:00,,0819.1,4.99,0.00,24.3,23.3,00.0,33.2,26.1,08.2,0000.0,0009.13,0003.58,0002.44
2022-04-15 00:27:00,,0819.1,5.00,0.00,24.3,23.3,00.0,33.2,26.1,08.2,0000.0,0009.09,0003.58,0002.45
2022-04-15 00:28:00,,0819.1,5.00,0.00,24.3,23.3,00.0,33.2,26.1,08.4,0000.0,0009.12,0003.60,0002.46
2022-04-15 00:29:00,,0819.1,5.00,0.00,24.3,23.3,00.0,33.2,26.2,08.5,0000.0,0008.79,0003.63,0002.45
2022-04-15 00:30:00,,0819.1,4.99,0.00,24.3,23.3,00.0,33.2,26.1,08.5,0000.0,0008.26,0003.63,0002.43
2022-04-15 00:31:00,,0819.1,5.00,0.00,24.3,23.3,00.0,33.2,26.0,08.6,0000.0,0008.28,0003.63,0002.44
2022-04-15 00:32:00,,0819.1,5.00,0.00,24.3,23.3,00.0,33.2,26.0,08.6,0000.0,0007.89,0003.63,0002.44
2022-04-15 00:33:00,,0819.1,5.00,0.00,24.3,23.3,00.0,33.2,26.0,08.6,0000.0,0007.60,0003.68,0002.45
2022-04-15 00:34:00,,0819.0,5.02,0.00,24.3,23.3,00.0,33.2,26.1,08.5,0000.0,0007.74,0003.70,0002.46
2022-04-15 00:35:00,,0819.0,4.99,0.00,24.3,23.3,00.0,33.2,26.1,08.5,0000.0,0007.79,0003.70,0002.47
2022-04-15 00:36:00,,0819.1,4.99,0.00,24.3,23.3,00.0,33.2,26.0,08.5,0000.0,0007.99,0003.71,0002.48
2022-04-15 00:37:00,,0819.1,5.01,0.00,24.2,23.3,00.0,33.2,26.1,08.2,0000.0,0008.92,0003.75,0002.47
2022-04-15 00:38:00,,0819.0,5.01,0.00,24.2,23.3,00.0,33.2,26.1,08.1,0000.0,0009.14,0003.77,0002.45
2022-04-15 00:39:00,,0819.1,5.00,0.00,24.2,23.2,00.0,33.2,26.1,07.9,0000.0,0009.26,0003.78,0002.44
2022-04-15 00:40:00,,0819.1,4.99,0.00,24.2,23.2,00.0,33.2,26.0,08.0,0000.0,0009.39,0003.79,0002.43
2022-04-15 00:41:00,,0819.0,5.01,0.00,24.2,23.2,00.0,33.2,25.9,08.2,0000.0,0009.35,0003.79,0002.43
2022-04-15 00:42:00,,0819.0,5.01,0.00,24.2,23.2,00.0,33.2,26.0,08.2,0000.0,0009.32,0003.80,0002.41
2022-04-15 00:43:00,,0818.9,4.99,0.00,24.2,23.2,00.0,33.2,25.9,08.3,0000.0,0009.34,0003.76,0002.40
2022-04-15 00:44:00,,0818.9,5.00,0.00,24.2,23.2,00.0,33.2,25.9,08.4,0000.0,0009.87,0003.73,0002.38
2022-04-15 00:45:00,,0818.9,5.00,0.00,24.2,23.2,00.0,33.2,25.9,08.3,0000.0,0010.22,0003.76,0002.39
2022-04-15 00:46:00,,0818.9,4.99,0.00,24.2,23.2,00.0,33.2,25.9,08.2,0000.0,0010.43,0003.77,0002.38
2022-04-15 00:47:00,,0818.9,5.00,0.00,24.2,23.1,00.0,33.2,25.9,08.1,0000.0,0010.93,0003.73,0002.37
2022-04-15 00:48:00,,0819.0,5.00,0.00,24.2,23.1,00.0,33.2,25.9,08.1,0000.0,0010.55,0003.71,0002.37
2022-04-15 00:49:00,,0819.0,4.99,0.00,24.2,23.2,00.0,33.1,25.9,08.0,0000.0,0009.98,0003.72,0002.37
2022-04-15 00:50:00,,0819.0,5.00,0.00,24.2,23.2,00.0,33.1,26.0,07.9,0000.0,0010.52,0003.70,0002.36
2022-04-15 00:51:00,,0818.9,5.01,0.00,24.2,23.1,00.0,33.1,25.9,08.0,0000.0,0010.39,0003.67,0002.35
2022-04-15 00:52:00,,0818.9,5.00,0.00,24.2,23.1,00.0,33.1,25.9,08.0,0000.0,0010.18,0003.60,0002.35
2022-04-15 00:53:00,,0819.0,5.00,0.00,24.2,23.1,00.0,33.1,25.8,08.0,0000.0,0010.18,0003.59,0002.34
2022-04-15 00:54:00,,0819.1,5.00,0.00,24.1,23.1,00.0,33.1,25.8,08.1,0000.0,0010.16,0003.58,0002.33
2022-04-15 00:55:00,,0819.0,4.99,0.00,24.2,23.1,00.0,33.1,25.8,08.1,0000.0,0009.89,0003.60,0002.32
2022-04-15 00:56:00,,0819.0,5.01,0.00,24.2,23.1,00.0,33.1,25.9,08.0,0000.0,0009.28,0003.59,0002.33
2022-04-15 00:57:00,,0819.0,5.00,0.00,24.2,23.1,00.0,33.1,25.9,07.9,0000.0,0009.12,0003.56,0002.32
2022-04-15 00:58:00,,0818.9,4.99,0.00,24.2,23.1,00.0,33.1,25.8,07.9,0000.0,0008.17,0003.55,0002.32
2022-04-15 00:59:00,,0818.9,5.00,0.00,24.2,23.1,00.0,33.1,25.9,07.8,0000.0,0008.04,0003.55,0002.32
